Weather History for Juneau, WI

Change the Weather History Date:

Monday, August 19, 2013

  Actual Average Record
Temperature  
Mean Temperature 68 °F -  
Max Temperature 81 °F 74 °F 91 °F (1972)
Min Temperature 56 °F 58 °F 46 °F (1985)
Cooling Degree Days 4    
Growing Degree Days 18 (Base 50)    
Moisture  
Dew Point 54 °F    
Average Humidity 63    
Maximum Humidity 94    
Minimum Humidity 33    
Precipitation  
Precipitation 0.00 in - - ()
Sea Level Pressure  
Sea Level Pressure 30.09 in    
Wind  
Wind Speed 4 mph (SSW)    
Max Wind Speed 14 mph    
Max Gust Speed 18 mph    
Visibility 9 miles    
Events      
Averages and records for this station are not official NWS values.
T = Trace of Precipitation, MM = Missing Value Source: NWS Daily Summary

Daily Weather History Graph

Daily Weather History Graph

Search for Another Location

Airport:

Trip Planner

Search our weather history database for the weather conditions in past years. The results will help you decide how hot, cold, wet, or windy it might be!

Date:

Astronomy

Aug. 19, 2013 Rise Set
Actual Time 6:04 AM CDT 7:51 PM CDT
Civil Twilight 5:34 AM CDT 8:21 PM CDT
Nautical Twilight 4:56 AM CDT 8:58 PM CDT
Astronomical Twilight 4:16 AM CDT 9:38 PM CDT
Moon 6:42 PM CDT (8/19) 4:22 AM CDT (8/19)
Length of Visible Light 14h 47m
Length of Day
13h 46m
Waxing Gibbous, 97% of the Moon is Illuminated
Aug 19
Waxing Gibbous
Aug 20
Full
Aug 28
Last Quarter
Sep 5
New
Sep 12
First Quarter

Hourly Weather History & Observations

Time (CDT) Temp. Dew Point Humidity Pressure Visibility Wind Dir Wind Speed Gust Speed Precip Events Conditions
12:15 AM 62.6 °F 54.0 °F 73% 30.13 in 10.0 mi South 3.5 mph - N/A   Clear
12:35 AM 61.2 °F 54.0 °F 77% 30.12 in 10.0 mi Calm Calm - N/A   Clear
12:55 AM 60.8 °F 54.1 °F 79% 30.12 in 10.0 mi SSE 3.5 mph - N/A   Clear
1:15 AM 60.3 °F 54.1 °F 80% 30.12 in 10.0 mi Calm Calm - N/A   Clear
1:35 AM 60.3 °F 54.0 °F 80% 30.12 in 10.0 mi Calm Calm - N/A   Clear
1:55 AM 60.4 °F 54.0 °F 79% 30.12 in 10.0 mi Calm Calm - N/A   Clear
2:15 AM 59.4 °F 54.0 °F 82% 30.12 in 10.0 mi Calm Calm - N/A   Clear
2:35 AM 59.0 °F 53.8 °F 83% 30.12 in 10.0 mi SE 3.5 mph - N/A   Clear
2:55 AM 58.3 °F 54.0 °F 86% 30.11 in 10.0 mi Calm Calm - N/A   Clear
3:15 AM 58.1 °F 54.0 °F 86% 30.11 in 10.0 mi SE 3.5 mph - N/A   Clear
3:35 AM 57.9 °F 54.1 °F 87% 30.11 in 10.0 mi SE 3.5 mph - N/A   Clear
3:55 AM 57.4 °F 54.3 °F 90% 30.11 in 7.0 mi SE 3.5 mph - N/A   Clear
4:15 AM 57.2 °F 54.1 °F 89% 30.11 in 7.0 mi SSE 3.5 mph - N/A   Clear
4:35 AM 56.8 °F 54.0 °F 90% 30.11 in 7.0 mi SE 4.6 mph - N/A   Clear
4:55 AM 56.3 °F 54.0 °F 92% 30.11 in 5.0 mi SE 3.5 mph - N/A   Clear
5:15 AM 56.3 °F 54.5 °F 94% 30.11 in 5.0 mi Calm Calm - N/A   Clear
5:35 AM 56.3 °F 54.1 °F 92% 30.12 in 7.0 mi SE 3.5 mph - N/A   Clear
5:55 AM 56.3 °F 54.5 °F 94% 30.12 in 5.0 mi SE 3.5 mph - N/A   Scattered Clouds
6:15 AM 56.3 °F 54.5 °F 94% 30.12 in 5.0 mi SE 4.6 mph - N/A   Mostly Cloudy
6:35 AM 56.3 °F 54.5 °F 94% 30.12 in 5.0 mi SE 5.8 mph - N/A   Scattered Clouds
6:55 AM 57.2 °F 54.9 °F 92% 30.12 in 7.0 mi SE 4.6 mph - N/A   Clear
7:15 AM 58.3 °F 55.2 °F 90% 30.12 in 7.0 mi SE 4.6 mph - N/A   Clear
7:35 AM 60.1 °F 55.9 °F 86% 30.12 in 7.0 mi SE 4.6 mph - N/A   Clear
7:55 AM 62.1 °F 57.0 °F 84% 30.12 in 10.0 mi SSE 4.6 mph - N/A   Clear
8:15 AM 64.0 °F 56.1 °F 75% 30.12 in 10.0 mi SSE 4.6 mph - N/A   Clear
8:35 AM 66.4 °F 57.4 °F 73% 30.12 in 10.0 mi South 4.6 mph - N/A   Clear
8:55 AM 68.4 °F 57.2 °F 67% 30.12 in 10.0 mi South 5.8 mph - N/A   Clear
9:15 AM 69.1 °F 56.7 °F 65% 30.12 in 10.0 mi SSW 8.1 mph - N/A   Clear
9:35 AM 70.2 °F 56.8 °F 63% 30.11 in 10.0 mi SSW 5.8 mph - N/A   Clear
9:55 AM 72.3 °F 56.5 °F 57% 30.11 in 10.0 mi SSW 5.8 mph - N/A   Clear
10:15 AM 73.0 °F 56.5 °F 56% 30.11 in 10.0 mi WSW 4.6 mph - N/A   Clear
10:35 AM 74.3 °F 56.8 °F 54% 30.12 in 10.0 mi WSW 6.9 mph - N/A   Clear
10:55 AM 75.6 °F 56.3 °F 51% 30.11 in 10.0 mi SW 8.1 mph - N/A   Clear
11:15 AM 75.7 °F 56.3 °F 51% 30.11 in 10.0 mi SW 8.1 mph - N/A   Clear
11:35 AM 77.2 °F 55.0 °F 46% 30.10 in 10.0 mi SW 9.2 mph - N/A   Clear
11:55 AM 77.9 °F 52.2 °F 41% 30.10 in 10.0 mi WSW 8.1 mph - N/A   Clear
12:15 PM 79.7 °F 52.7 °F 39% 30.09 in 10.0 mi South 4.6 mph - N/A   Clear
12:35 PM 78.6 °F 51.3 °F 38% 30.08 in 10.0 mi SSW 5.8 mph - N/A   Scattered Clouds
12:55 PM 78.4 °F 50.9 °F 38% 30.08 in 10.0 mi SW 9.2 mph - N/A   Scattered Clouds
1:15 PM 79.7 °F 50.0 °F 35% 30.08 in 10.0 mi South 8.1 mph - N/A   Clear
1:35 PM 79.5 °F 50.2 °F 36% 30.07 in 10.0 mi SSW 10.4 mph 16.1 mph N/A   Scattered Clouds
1:55 PM 80.6 °F 49.6 °F 34% 30.08 in 10.0 mi SW 13.8 mph 17.3 mph N/A   Scattered Clouds
2:15 PM 80.6 °F 49.1 °F 33% 30.07 in 10.0 mi SW 11.5 mph 18.4 mph N/A   Scattered Clouds
2:35 PM 81.5 °F 51.1 °F 35% 30.07 in 10.0 mi SSW 12.7 mph 17.3 mph N/A   Scattered Clouds
2:55 PM 81.1 °F 50.9 °F 35% 30.07 in 10.0 mi SW 12.7 mph 18.4 mph N/A   Scattered Clouds
3:15 PM 79.2 °F 50.4 °F 36% 30.06 in 10.0 mi SW 11.5 mph 17.3 mph N/A   Scattered Clouds
3:35 PM 78.8 °F 51.6 °F 39% 30.05 in 10.0 mi SSW 9.2 mph - N/A   Clear
3:55 PM 79.0 °F 53.4 °F 41% 30.05 in 10.0 mi SSW 9.2 mph - N/A   Clear
4:15 PM 78.4 °F 54.1 °F 43% 30.05 in 10.0 mi South 8.1 mph - N/A   Scattered Clouds
4:35 PM 78.8 °F 55.8 °F 45% 30.05 in 10.0 mi South 8.1 mph - N/A   Scattered Clouds
4:55 PM 79.0 °F 55.9 °F 45% 30.04 in 10.0 mi SSW 9.2 mph - N/A   Scattered Clouds
5:15 PM 79.2 °F 54.7 °F 43% 30.04 in 10.0 mi SW 9.2 mph - N/A   Mostly Cloudy
5:35 PM 79.0 °F 50.7 °F 37% 30.05 in 10.0 mi WSW 11.5 mph - N/A   Scattered Clouds
5:55 PM 78.1 °F 52.9 °F 41% 30.04 in 10.0 mi WSW 8.1 mph - N/A   Clear
6:15 PM 77.2 °F 54.1 °F 45% 30.04 in 10.0 mi WSW 6.9 mph - N/A   Clear
6:35 PM 76.5 °F 54.7 °F 47% 30.04 in 10.0 mi SW 10.4 mph - N/A   Clear
6:55 PM 75.6 °F 54.5 °F 48% 30.04 in 10.0 mi SW 9.2 mph - N/A   Clear
7:15 PM 74.5 °F 54.0 °F 49% 30.04 in 10.0 mi SW 6.9 mph - N/A   Clear
7:35 PM 73.2 °F 53.8 °F 50% 30.04 in 10.0 mi SW 8.1 mph - N/A   Clear
7:55 PM 71.2 °F 54.1 °F 55% 30.04 in 10.0 mi SW 4.6 mph - N/A   Clear
8:15 PM 68.9 °F 54.1 °F 59% 30.04 in 10.0 mi SSW 5.8 mph - N/A   Clear
8:35 PM 68.9 °F 55.0 °F 61% 30.04 in 10.0 mi SSW 3.5 mph - N/A   Clear
8:55 PM 68.4 °F 54.7 °F 62% 30.05 in 10.0 mi Calm Calm - N/A   Clear
9:15 PM 68.2 °F 54.5 °F 62% 30.05 in 10.0 mi South 3.5 mph - N/A   Clear
9:35 PM 66.7 °F 54.1 °F 64% 30.05 in 10.0 mi SSW 3.5 mph - N/A   Clear
9:55 PM 66.2 °F 54.5 °F 66% 30.05 in 10.0 mi South 4.6 mph - N/A   Clear
10:15 PM 65.1 °F 55.2 °F 70% 30.06 in 10.0 mi Calm Calm - N/A   Clear
10:35 PM 66.0 °F 56.5 °F 71% 30.05 in 10.0 mi Calm Calm - N/A   Clear
10:55 PM 65.5 °F 56.5 °F 73% 30.05 in 10.0 mi Calm Calm - N/A   Clear
11:35 PM 64.4 °F 57.2 °F 77% 30.05 in 10.0 mi Calm Calm - N/A   Clear
11:55 PM 64.4 °F 57.4 °F 78% 30.05 in 10.0 mi SSE 3.5 mph - N/A   Clear